Startseite
Über Mich
AHP4
Galerie
Sehschlangen
Tourenbuch
Bookmarks
Elektronik
Bewertung
Geschichten
[Tagesmessung] [Jahreswerte] [Information]

Messwerte vom 07.05.2022

Die letzten Messwerte von 23:58:49 Uhr:
KategorieMesswert
Temperatur [°C]12
Luftdruck [mBar]1008
Sonneneinstrahlung0
Wind [km/h]0 aus Südost
Niederschlag [l/m²]0
rel.Luftfeucht.86.9%
CO2 [ppm]576

Diagramme
Messwerte vom 07.05.2022
Tagesaggregation
KategorieMinimumMaximumSchnittSumme
Temperatur [°C]62715.6104
Luftdruck [mBar]100510091006.2521
Sonneneinstrahlung246134.6146
Wind [km/h]27
rF [%]34.696.270.13
Niederschlag [l/m²]0
CO2 [ppm]402741565.1
Einordnung alsVegetationstag
Sommertag

Messungen an benachbarten Tagen: Zur Jahresaggregation 2022
Tabelle aller Messwerte
UhrzeitTemperatur [°C]Luftdruck [mBar]SonneWind [km/h]RichtungRegen [l/m²]rF [%]CO2 [ppm]
00:01:47 10 1006 0 0 NW 0 83.9 725
00:04:49 10 1006 0 0 NW 0 84.2 720
00:07:49 10 1006 0 0 NW 0 84.6 720
00:10:48 10 1007 0 0 NW 0 85.1 725
00:13:46 10 1007 0 0 NW 0 85 732
00:16:48 9 1006 0 0 NW 0 84.8 728
00:19:50 9 1006 0 0 NW 0 84.9 726
00:22:48 9 1006 0 0 NW 0 85.4 723
00:25:46 9 1006 0 0 NW 0 85.6 718
00:28:47 9 1007 0 0 NW 0 85.7 720
00:31:48 9 1007 0 0 NW 0 86.7 720
00:34:51 9 1006 0 0 NW 0 86.8 723
00:37:50 9 1006 0 0 NW 0 86.6 723
00:40:48 9 1006 0 0 NW 0 85.9 723
00:43:47 9 1006 0 0 NW 0 85.8 726
00:46:50 9 1007 0 0 NW 0 85.9 736
00:49:48 9 1006 0 0 NW 0 86.6 734
00:52:48 9 1006 0 0 NW 0 87.2 740
00:55:48 9 1006 0 0 NW 0 87.5 737
00:58:47 9 1007 0 0 NW 0 87.9 720
01:01:49 8 1006 0 0 NW 0 87.6 723
01:04:46 8 1007 0 0 NW 0 87.5 727
01:07:48 8 1006 0 0 NW 0 87.2 730
01:10:51 8 1006 0 0 NW 0 87.1 737
01:13:47 8 1006 0 0 NW 0 87.2 736
01:16:48 8 1006 0 0 NW 0 87.8 732
01:19:50 8 1006 0 0 NW 0 88 733
01:22:48 8 1006 0 0 NW 0 88.2 726
01:25:46 8 1006 0 0 NW 0 88.7 723
01:28:49 8 1006 0 0 NW 0 88.9 723
01:31:46 8 1006 0 0 NW 0 89.1 726
01:34:50 8 1006 0 0 NW 0 89.2 727
01:37:47 8 1006 0 0 NW 0 89.2 718
01:40:48 8 1006 0 0 NW 0 89.7 720
01:43:47 8 1006 0 0 NW 0 89.9 721
01:46:47 8 1006 0 0 NW 0 89.9 726
01:49:48 8 1006 0 0 NW 0 90.1 711
01:52:47 8 1006 0 0 NW 0 90 721
01:55:47 8 1006 0 0 NW 0 89.8 726
01:58:47 8 1006 0 0 NW 0 89.7 733
02:01:49 7 1006 0 0 NW 0 89.6 725
02:04:47 7 1006 0 0 NW 0 89.7 729
02:07:48 7 1006 0 0 NW 0 89.8 729
02:10:50 7 1006 0 0 NW 0 90 730
02:13:50 7 1006 0 0 NW 0 90.1 728
02:16:48 7 1006 0 0 NW 0 90.2 728
02:19:50 7 1006 0 0 NW 0 90.5 726
02:22:49 7 1006 0 0 NW 0 90.5 732
02:25:46 7 1006 0 0 NW 0 90.3 734
02:28:47 7 1006 0 0 NW 0 90.4 734
02:31:48 7 1006 0 0 NW 0 90.6 727
02:34:48 7 1006 0 0 NW 0 91.5 731
02:37:46 7 1006 0 0 NW 0 91.6 728
02:40:46 7 1006 0 0 NW 0 91.3 734
02:43:48 7 1006 0 0 NW 0 91 735
02:46:47 7 1006 0 0 NW 0 91.1 740
02:49:48 7 1006 0 0 NW 0 91.4 733
02:52:47 7 1006 0 0 NW 0 91.4 738
02:55:47 7 1006 0 0 NW 0 91.4 740
02:58:48 7 1006 0 0 NW 0 91.4 741
03:01:48 7 1006 0 0 NW 0 91.7 736
03:04:50 7 1006 0 0 NW 0 92.2 738
03:07:49 7 1006 0 0 NW 0 92.3 732
03:10:47 7 1006 0 0 NW 0 92.4 735
03:13:50 7 1006 0 0 NW 0 92.3 726
03:16:48 7 1006 0 0 NW 0 92.4 720
03:19:48 7 1006 0 0 NW 0 92.5 726
03:22:48 7 1006 0 0 NW 0 92.8 734
03:25:48 7 1006 0 0 NW 0 92.7 734
03:28:49 7 1006 0 0 NW 0 92.8 737
03:31:46 7 1006 0 0 NW 0 93 729
03:34:46 7 1006 0 0 NW 0 93.1 726
03:37:47 7 1006 0 0 NW 0 93.2 724
03:40:49 7 1006 0 0 NW 0 93.4 723
03:43:46 7 1006 0 0 NW 0 93.4 723
03:46:48 7 1006 0 0 NW 0 93.4 723
03:49:48 7 1006 0 0 NW 0 93.4 724
03:52:51 6 1006 0 0 NW 0 93.6 726
03:55:48 6 1006 0 0 NW 0 93.7 729
03:58:47 6 1006 0 0 NW 0 93.6 737
04:01:49 6 1006 0 0 NW 0 93.5 737
04:04:48 6 1006 0 0 NW 0 93.5 732
04:07:47 6 1006 0 0 NW 0 93.7 729
04:10:48 6 1006 0 0 NW 0 93.7 733
04:13:49 6 1006 0 0 NW 0 93.8 731
04:16:50 6 1006 0 0 NW 0 93.9 726
04:19:48 6 1006 0 0 NW 0 93.9 732
04:22:48 6 1006 0 0 NW 0 93.9 731
04:25:48 6 1006 0 0 NW 0 94 737
04:28:50 6 1006 0 0 NW 0 94.1 729
04:31:48 6 1006 0 0 NW 0 94.3 729
04:34:49 6 1006 0 0 NW 0 94.4 725
04:37:49 6 1006 0 0 NW 0 94.4 729
04:40:48 6 1006 0 0 NW 0 94.5 732
04:43:47 6 1006 0 0 NW 0 94.7 731
04:46:48 6 1006 0 0 NW 0 94.6 729
04:49:48 6 1006 0 0 NW 0 94.8 723
04:52:48 6 1006 0 0 NW 0 94.8 724
04:55:49 6 1006 0 0 NW 0 94.9 726
04:58:49 6 1006 0 0 NW 0 94.9 713
05:01:50 6 1006 0 0 NW 0 95.1 718
05:04:51 6 1006 0 0 NW 0 95.1 723
05:07:46 6 1006 3 0 NW 0 95.1 720
05:10:49 6 1006 5 0 NW 0 95.2 723
05:13:45 6 1006 8 0 NW 0 95.3 725
05:16:49 6 1006 12 0 NW 0 95.4 729
05:19:48 6 1006 19 0 NW 0 95.4 718
05:22:47 6 1006 25 0 NW 0 95.3 711
05:25:47 6 1006 31 0 NW 0 95.2 682
05:28:47 6 1006 39 0 NW 0 95.2 659
05:31:49 6 1006 49 0 NW 0 95.2 652
05:34:48 6 1006 57 0 NW 0 95.1 661
05:37:50 6 1006 66 0 NW 0 95.2 686
05:40:49 6 1006 73 0 NW 0 95.2 706
05:43:49 6 1006 78 0 NW 0 95.2 706
05:46:47 6 1006 83 0 NW 0 95.3 694
05:49:48 6 1006 86 0 NW 0 95.3 693
05:52:49 6 1006 90 0 NW 0 95.5 697
05:55:49 6 1006 93 0 NW 0 95.8 683
05:58:50 6 1006 97 0 NW 0 96 683
06:01:51 7 1006 102 0 NW 0 96.1 679
06:04:52 7 1006 108 0 NW 0 96.2 680
06:07:49 7 1006 114 0 NW 0 96.2 685
06:10:49 7 1006 120 0 NW 0 96.2 672
06:13:48 7 1006 127 0 NW 0 96 667
06:16:48 7 1006 133 0 NW 0 95.9 659
06:19:51 7 1006 138 0 NW 0 95.8 662
06:22:48 8 1006 142 0 NW 0 95.7 673
06:25:47 8 1006 145 0 NW 0 95.7 675
06:28:51 8 1006 148 0 NW 0 95.5 667
06:31:50 8 1006 151 0 NW 0 95.4 662
06:34:49 8 1006 156 0 NW 0 95.3 659
06:37:51 8 1006 160 0 NW 0 95.3 654
06:40:50 8 1006 166 0 NW 0 95.2 653
06:43:49 9 1006 170 0 NW 0 95.1 659
06:46:47 9 1006 173 0 NW 0 95 653
06:49:48 9 1006 177 0 NW 0 94.9 662
06:52:48 9 1006 180 0 NW 0 94.8 667
06:55:48 9 1006 183 0 NW 0 94.5 662
06:58:48 9 1006 185 0 NW 0 94.4 662
07:01:51 9 1006 186 0 NW 0 94.2 649
07:04:48 9 1006 187 0 NW 0 94.1 650
07:07:48 10 1006 186 0 NW 0 93.9 651
07:10:48 10 1006 185 0 NW 0 93.7 646
07:13:49 10 1006 186 0 NW 0 93.5 653
07:16:49 10 1006 191 0 SO 0 93.2 648
07:19:49 10 1006 193 0 S 0 92.8 645
07:22:48 10 1006 193 1 W 0 92.3 642
07:25:48 11 1006 192 0 S 0 92 650
07:28:47 11 1006 191 0 S 0 92.1 641
07:31:47 11 1006 193 0 S 0 91.5 645
07:34:47 11 1006 195 0 S 0 90.6 632
07:37:47 11 1006 195 0 S 0 90.3 635
07:40:48 11 1006 194 1 W 0 90.4 635
07:43:48 11 1006 192 0 O 0 89.9 642
07:46:49 11 1006 190 1 SW 0 89.3 635
07:49:49 12 1006 188 0 S 0 88.2 637
07:52:50 12 1007 189 0 SO 0 87.3 633
07:55:48 12 1006 192 0 S 0 86.6 626
07:58:47 12 1006 193 0 W 0 86.6 624
08:01:50 13 1006 194 0 W 0 85.6 626
08:04:50 13 1006 196 0 SW 0 85.8 621
08:07:51 13 1006 199 0 SW 0 83.4 622
08:10:53 14 1006 202 1 SW 0 82.7 618
08:13:49 14 1006 203 4 SW 0 81.5 623
08:16:47 14 1006 204 1 S 0 81.1 620
08:19:52 14 1006 203 0 NW 0 79.5 612
08:22:48 14 1006 204 3 W 0 79.2 615
08:25:48 15 1006 206 1 NW 0 79.1 616
08:28:50 15 1006 207 0 NW 0 78.2 612
08:31:47 15 1006 207 0 O 0 78 612
08:34:49 16 1006 208 5 NW 0 75.2 616
08:37:49 16 1006 210 3 N 0 71.9 622
08:40:48 16 1006 210 0 SW 0 71 623
08:43:48 16 1007 210 6 SW 0 69 621
08:46:50 16 1006 209 2 SW 0 71 619
08:49:46 16 1006 208 0 O 0 71.1 611
08:52:50 16 1006 205 2 NW 0 70.3 619
08:55:49 16 1006 203 0 SW 0 69.7 617
08:58:49 16 1006 204 0 SW 0 70.2 615
09:01:49 16 1006 207 0 SW 0 70.5 612
09:04:48 17 1006 209 1 W 0 70.8 611
09:07:47 17 1006 212 3 W 0 70.2 612
09:10:50 17 1006 214 5 SW 0 69.9 614
09:13:49 17 1006 217 3 W 0 69.4 621
09:16:48 17 1006 218 0 S 0 67.2 614
09:19:47 17 1006 218 0 S 0 66.8 612
09:22:48 18 1007 218 3 SW 0 66.6 606
09:25:50 18 1006 217 0 SW 0 66.5 609
09:28:48 18 1006 215 3 NW 0 66 609
09:31:50 18 1007 213 2 SW 0 65.8 610
09:34:50 18 1007 213 3 NW 0 65.6 606
09:37:47 18 1006 214 0 O 0 67 600
09:40:46 18 1007 214 2 W 0 67 600
09:43:49 18 1007 213 2 W 0 67.3 603
09:46:50 18 1006 214 1 W 0 66.6 605
09:49:51 18 1006 217 2 NW 0 66.6 609
09:52:48 18 1006 219 5 W 0 66.9 618
09:55:50 19 1007 220 1 O 0 65.7 609
09:58:48 19 1006 222 1 W 0 65.1 597
10:01:50 20 1007 223 1 SO 0 63.9 601
10:04:46 20 1007 224 4 O 0 62.5 603
10:07:50 20 1006 224 4 NW 0 61.7 601
10:10:48 21 1007 225 2 S 0 59.9 592
10:13:49 21 1007 226 2 S 0 59.9 594
10:16:50 20 1007 227 5 NW 0 58.4 594
10:19:48 20 1006 226 2 N 0 59.6 582
10:22:51 20 1007 224 13 NW 0 56.7 582
10:25:48 20 1007 221 4 NW 0 58.4 573
10:28:48 20 1006 220 1 W 0 59.9 571
10:31:48 19 1007 220 4 NW 0 58.9 571
10:34:47 19 1007 220 2 N 0 57.9 570
10:37:32 19 1007 219 2 N 0 49.7 556
10:40:47 18 1007 217 5 NO 0 61.7 562
10:43:47 18 1007 218 3 W 0 61.9 565
10:46:48 18 1007 220 6 NW 0 63.5 565
10:49:48 19 1006 222 3 W 0 63.1 562
10:52:48 19 1007 223 4 W 0 63.1 562
10:55:49 19 1007 225 3 NW 0 63.2 565
10:58:50 19 1007 226 3 NO 0 60.3 565
11:01:47 19 1007 226 2 W 0 60.1 565
11:04:48 19 1007 226 3 NW 0 62.1 565
11:07:50 19 1006 226 1 NW 0 63.3 561
11:10:47 19 1008 227 8 W 0 62.6 559
11:13:49 20 1007 227 5 W 0 62 553
11:16:50 20 1007 226 1 NW 0 62 555
11:19:47 20 1007 225 4 NW 0 61.8 556
11:22:48 20 1008 225 1 NW 0 60 550
11:25:50 20 1007 225 2 NW 0 60 552
11:28:47 20 1006 224 3 NW 0 60.1 550
11:31:49 20 1006 223 0 NW 0 60.1 557
11:34:49 20 1007 224 2 NW 0 61.2 557
11:37:47 20 1006 225 0 N 0 61 562
11:40:49 20 1007 226 4 NW 0 61.7 564
11:43:50 20 1007 226 9 NW 0 59.2 557
11:46:32 19 1007 226 2 NW 0 52.2 556
11:49:48 20 1007 227 2 O 0 62.8 554
11:52:47 20 1007 228 2 W 0 62.7 553
11:55:48 20 1007 228 1 W 0 62.3 550
11:58:48 21 1006 228 2 W 0 61.8 559
12:01:49 21 1007 229 5 W 0 61.8 556
12:04:51 21 1007 230 2 NW 0 59.4 556
12:07:49 21 1007 231 5 SW 0 58.2 557
12:10:48 20 1006 231 6 W 0 57.8 550
12:13:47 20 1007 229 7 W 0 59 547
12:16:51 20 1007 230 8 NW 0 59.6 542
12:19:49 20 1007 230 5 SW 0 62.5 547
12:22:48 21 1007 231 2 NO 0 61.2 544
12:25:50 21 1006 229 2 W 0 59.6 542
12:28:47 21 1006 229 2 O 0 59 537
12:31:49 21 1006 228 5 W 0 58.9 533
12:34:50 21 1006 227 4 SW 0 60.2 533
12:37:49 21 1006 226 3 NW 0 59.1 536
12:40:50 21 1007 225 8 NW 0 57.9 539
12:43:48 21 1007 223 2 NW 0 59.3 530
12:46:50 21 1006 222 2 SW 0 60.6 536
12:49:51 21 1007 223 4 NW 0 58.7 532
12:52:48 20 1006 226 0 O 0 59.3 538
12:55:48 21 1006 229 3 O 0 60.7 538
12:58:49 22 1006 230 8 W 0 58.9 538
13:01:50 23 1006 230 0 S 0 57.2 539
13:04:47 24 1007 230 8 0 48.5 544
13:07:51 24 1006 232 4 NW 0 52.2 547
13:10:50 24 1006 233 2 NO 0 52.8 538
13:13:36 22 1006 232 0 NW 0 40 533
13:16:46 24 1006 231 4 NW 0 49.4 536
13:19:48 23 1006 231 9 NW 0 49 535
13:22:49 22 1006 231 4 NW 0 51.3 527
13:25:49 22 1006 229 1 SW 0 53.9 533
13:28:49 23 1006 233 6 W 0 53.5 527
13:31:49 25 1006 233 9 NW 0 49.9 530
13:34:49 25 1006 231 3 W 0 49.8 533
13:37:48 26 1006 229 2 SO 0 48.6 536
13:40:49 26 1006 229 3 SW 0 47.3 533
13:43:48 25 1006 229 2 W 0 47.4 527
13:46:47 25 1006 231 2 N 0 47.6 524
13:49:49 24 1006 232 14 W 0 46.4 530
13:52:49 24 1006 233 9 SW 0 45.8 524
13:55:47 25 1006 234 4 W 0 47.6 529
13:58:48 26 1006 235 3 W 0 47.8 524
14:01:50 26 1006 235 5 NW 0 43.2 524
14:04:49 26 1006 235 1 SW 0 43.3 520
14:07:47 26 1006 234 3 W 0 44.1 521
14:10:49 26 1006 225 2 SO 0 43.9 518
14:13:48 26 1006 230 2 SO 0 43.4 524
14:16:48 25 1006 232 4 SW 0 43.6 526
14:19:45 25 1006 239 0 O 0 43.6 524
14:22:49 25 1006 239 3 NW 0 45.8 518
14:25:49 26 1006 239 8 NW 0 43.1 516
14:28:48 26 1006 241 2 SW 0 43.1 509
14:31:51 26 1006 241 3 NW 0 41.9 516
14:34:48 27 1006 242 0 SW 0 42 518
14:37:48 27 1006 239 7 NW 0 41.9 519
14:40:47 27 1006 243 3 S 0 39.5 515
14:43:48 27 1006 242 9 NW 0 38.1 514
14:46:49 27 1006 243 12 NW 0 37.7 515
14:49:49 25 1006 243 15 NW 0 41 510
14:52:49 24 1006 244 3 W 0 47 506
14:55:49 25 1006 243 4 NW 0 45 499
14:58:50 25 1006 242 7 NO 0 44.1 504
15:01:51 25 1006 242 5 N 0 44.9 507
15:04:50 25 1006 242 3 NW 0 44.2 502
15:07:49 24 1006 243 5 NO 0 43.4 506
15:10:31 24 1006 244 0 O 0 40 451
15:13:48 25 1006 244 2 NO 0 46.2 451
15:16:49 25 1006 244 7 W 0 44.4 451
15:19:45 25 1006 244 5 0 43.1 454
15:22:47 24 1006 237 5 N 0 41.5 459
15:25:49 24 1006 244 4 NW 0 42.3 450
15:28:46 25 1006 245 1 SO 0 43.1 442
15:31:48 26 1005 245 1 NO 0 41.8 439
15:34:50 27 1006 245 4 NW 0 38.5 445
15:37:49 26 1006 245 4 W 0 38.2 450
15:40:49 26 1006 239 12 NW 0 38.4 447
15:43:46 24 1006 244 5 W 0 38.1 442
15:46:50 24 1006 231 7 NW 0 40.4 439
15:49:50 23 1006 233 7 NO 0 42 439
15:52:48 23 1006 245 1 SO 0 44.5 433
15:55:48 24 1006 235 2 S 0 44.8 430
15:58:48 25 1006 244 3 NW 0 44.2 433
16:01:49 25 1006 246 8 SW 0 42.6 437
16:04:49 25 1006 240 10 W 0 42.5 439
16:07:50 24 1006 245 7 N 0 42.2 436
16:10:48 23 1006 237 11 N 0 41.7 436
16:13:47 23 1006 238 16 N 0 41.7 433
16:16:50 23 1006 246 4 NW 0 43.3 433
16:19:51 23 1006 245 6 NW 0 43.8 427
16:22:47 23 1005 244 10 O 0 42.6 430
16:25:50 23 1006 245 7 NW 0 42.1 424
16:28:47 23 1006 246 10 N 0 42.1 427
16:31:51 23 1006 246 7 NO 0 42.4 430
16:34:48 24 1006 245 0 S 0 43.6 430
16:37:47 24 1006 245 0 N 0 44 424
16:40:48 25 1006 246 5 N 0 41.7 424
16:43:49 25 1006 246 1 SO 0 40.3 419
16:46:47 25 1006 246 5 NO 0 40.2 415
16:49:47 25 1006 245 4 W 0 39.4 413
16:52:49 24 1006 245 9 NW 0 38 415
16:55:45 24 1006 245 3 N 0 38.7 418
16:58:49 24 1005 245 4 SW 0 40.4 415
17:01:50 25 1006 245 2 NW 0 39.7 424
17:04:48 25 1006 245 3 S 0 38.6 421
17:07:47 26 1006 246 7 W 0 38.9 427
17:10:49 26 1006 246 0 SO 0 38.4 424
17:13:49 26 1005 246 10 NW 0 34.6 424
17:16:47 25 1005 236 4 NW 0 34.7 421
17:19:49 24 1006 235 2 NW 0 37.8 419
17:22:47 23 1006 236 4 S 0 38.5 415
17:25:49 23 1006 235 5 NW 0 41.2 421
17:28:48 22 1005 233 4 W 0 43 418
17:31:48 23 1005 239 2 W 0 44.5 415
17:34:47 23 1006 246 1 W 0 45 413
17:37:46 24 1006 246 6 W 0 39.3 415
17:40:49 25 1005 246 0 S 0 38.9 421
17:43:47 25 1005 246 3 NW 0 40.1 424
17:46:47 26 1006 246 9 W 0 38.6 427
17:49:48 26 1006 246 3 NW 0 38.5 427
17:52:48 26 1006 245 7 W 0 34.7 421
17:55:49 26 1005 245 8 W 0 35.4 415
17:58:48 25 1006 244 4 W 0 35.5 413
18:01:48 25 1006 245 0 NO 0 37.3 413
18:04:48 25 1006 244 5 W 0 37.8 419
18:07:48 24 1006 236 2 O 0 38.9 418
18:10:47 24 1005 237 1 O 0 39.4 413
18:13:48 24 1005 230 6 W 0 40.8 411
18:16:48 23 1006 228 27 NO 0 40.3 413
18:19:49 22 1006 228 12 NW 0 41.2 418
18:22:49 21 1006 233 5 NW 0 44.3 418
18:25:49 21 1006 234 6 N 0 45.1 413
18:28:49 22 1006 234 5 N 0 45.8 412
18:31:48 22 1006 239 7 N 0 45 410
18:34:48 22 1006 235 7 NO 0 45.2 407
18:37:51 22 1006 235 6 NW 0 44.4 407
18:40:47 22 1006 229 3 N 0 44.8 404
18:43:48 21 1006 226 6 N 0 46.8 407
18:46:50 21 1006 225 8 NW 0 48.5 407
18:49:50 21 1006 224 4 NW 0 49.5 406
18:52:49 20 1006 220 2 NW 0 49.9 407
18:55:47 20 1006 209 6 W 0 50.6 406
18:58:49 20 1006 200 6 NW 0 52.2 404
19:01:50 20 1006 189 2 NW 0 53.3 404
19:04:48 19 1006 176 2 NW 0 54.2 407
19:07:47 19 1006 164 3 W 0 54.7 410
19:10:47 19 1006 163 5 W 0 54.7 419
19:13:48 19 1006 170 5 NW 0 54 410
19:16:45 19 1006 172 1 0 53.4 408
19:19:50 19 1006 175 5 W 0 52.7 404
19:22:50 19 1006 179 6 NW 0 52.8 406
19:25:49 19 1006 184 5 W 0 53.1 407
19:28:48 19 1006 192 3 W 0 53.6 410
19:31:48 19 1006 194 3 NW 0 54.1 407
19:34:50 19 1006 196 2 NW 0 54.7 407
19:37:51 19 1006 202 3 NW 0 55.2 406
19:40:49 19 1006 208 2 NW 0 55.7 406
19:43:47 19 1005 206 5 W 0 56.3 411
19:46:49 19 1006 202 1 NW 0 56.6 410
19:49:47 19 1006 191 3 O 0 57 413
19:52:47 19 1006 181 4 NW 0 57.5 407
19:55:48 18 1006 172 3 NW 0 58.2 407
19:58:48 18 1006 167 17 N 0 58.5 404
20:01:50 18 1006 164 6 NO 0 58.7 403
20:04:47 18 1006 167 9 N 0 59 404
20:07:48 18 1006 173 8 N 0 59.1 407
20:10:49 18 1006 173 14 NW 0 59.1 402
20:13:47 18 1006 172 9 W 0 59.2 407
20:16:49 18 1006 169 5 N 0 59.6 406
20:19:48 18 1006 165 4 N 0 60.3 406
20:22:50 18 1006 160 8 N 0 61.7 410
20:25:48 17 1006 152 13 N 0 61.9 407
20:28:50 17 1006 146 8 NW 0 62.4 405
20:31:48 17 1006 138 7 NO 0 62.7 404
20:34:51 17 1006 130 12 NO 0 63.5 410
20:37:49 16 1006 123 8 NW 0 64.6 406
20:40:48 16 1006 115 10 W 0 65.8 407
20:43:51 16 1006 106 7 NW 0 66.8 407
20:46:50 16 1006 96 10 NW 0 67.6 410
20:49:50 16 1006 85 12 N 0 68.5 407
20:52:47 16 1006 74 8 N 0 69 407
20:55:49 16 1006 62 8 NO 0 70.4 406
20:58:48 15 1006 51 6 NW 0 70.9 404
21:01:47 15 1006 39 8 N 0 71.7 404
21:04:48 15 1006 29 7 NO 0 72.1 404
21:07:48 15 1006 20 4 NW 0 72.6 404
21:10:48 15 1006 13 8 W 0 74.3 404
21:13:45 15 1006 9 7 N 0 74.8 407
21:16:47 15 1006 6 3 W 0 75.3 404
21:19:49 15 1006 4 10 NW 0 75.9 406
21:22:45 15 1006 3 5 N 0 76.1 406
21:25:46 15 1006 0 4 N 0 76.8 407
21:28:51 15 1006 0 6 N 0 77.8 410
21:31:46 15 1007 0 4 N 0 77.7 407
21:34:46 15 1006 0 5 W 0 78 407
21:37:45 14 1006 0 4 N 0 78.7 407
21:40:46 14 1006 0 2 N 0 79.2 406
21:43:47 14 1006 0 7 N 0 79.8 404
21:46:46 14 1007 0 2 N 0 80.1 407
21:49:49 14 1007 0 1 W 0 79.3 404
21:52:47 14 1007 0 0 NO 0 80 410
21:55:46 14 1007 0 0 N 0 79.4 407
21:58:48 13 1007 0 2 N 0 82.3 419
22:01:47 13 1007 0 1 N 0 83.4 419
22:04:50 13 1006 0 0 S 0 82 425
22:07:48 13 1007 0 4 NW 0 82.5 423
22:10:47 13 1008 0 4 N 0 83.8 430
22:13:50 13 1007 0 0 NW 0 83.1 437
22:16:47 13 1007 0 1 NW 0 82.8 437
22:19:49 13 1007 0 1 NO 0 83.5 451
22:22:46 13 1007 0 1 NO 0 83.7 471
22:25:47 13 1008 0 1 N 0 84.1 480
22:28:46 13 1008 0 0 N 0 83.5 483
22:31:48 13 1007 0 3 W 0 83.4 483
22:34:47 13 1008 0 0 NW 0 83.4 489
22:37:48 13 1008 0 0 NW 0 83.4 492
22:40:48 13 1008 0 0 NW 0 82.2 492
22:43:48 13 1008 0 0 NW 0 81.7 498
22:46:48 13 1008 0 0 NW 0 81.7 497
22:49:50 12 1007 0 0 NW 0 82.5 503
22:52:48 12 1007 0 0 NW 0 82.8 515
22:55:48 12 1008 0 0 SO 0 83.1 521
22:58:53 12 1007 0 0 SO 0 83 530
23:01:50 12 1008 0 0 SO 0 83 539
23:04:47 12 1007 0 0 SO 0 83.6 539
23:07:49 12 1008 0 0 SO 0 84.8 546
23:10:48 12 1008 0 0 SO 0 85.7 545
23:13:48 11 1009 0 0 SO 0 85.5 548
23:16:47 11 1008 0 0 SO 0 85.4 549
23:19:47 11 1008 0 0 SO 0 85.4 544
23:22:46 11 1009 0 0 SO 0 85.6 557
23:25:48 11 1008 0 0 NW 0 87.4 552
23:28:37 10 1008 0 1 NW 0 78.4 562
23:31:47 12 1008 0 0 W 0 90.2 551
23:34:47 12 1008 0 2 NW 0 90.4 564
23:37:49 12 1008 0 0 NW 0 89.9 574
23:40:51 12 1008 0 0 NW 0 88.5 573
23:43:48 12 1008 0 0 NW 0 88 562
23:46:49 12 1008 0 0 NW 0 87.3 565
23:49:47 12 1008 0 1 W 0 87.2 569
23:52:47 12 1008 0 0 W 0 87.3 579
23:55:48 12 1008 0 0 SO 0 87.1 579
23:58:49 12 1008 0 0 SO 0 86.9 576

Letzte Änderung : 22-Jul-2022
Copyright Jens Köhler, Wolfsburg, Obere Dorfstraße 10d